{"data":{"norad_id":65103,"epoch":"2026-09-20T07:43:12.120384Z","epoch_age_seconds":136257,"freshness":"FRESH","line1":"1 65103U 25167AB  26263.32166806 -.00000327  00000+0  14460-5 0  9999","line2":"2 65103  53.1574 198.7268 0001026  82.6844 277.4275 15.34388105 63331","mean_motion":15.34388105,"eccentricity":0.0001026,"inclination_deg":53.1574,"raan_deg":198.7268,"arg_perigee_deg":82.6844,"mean_anomaly_deg":277.4275,"bstar":1.446e-6,"rev_number":6333,"period_min":93.848485615052,"perigee_km":462.03672104623,"apogee_km":463.4404687183,"semimajor_km":6840.8755948823,"source":"CELESTRAK","updated_at":"2026-09-21T09:00:35.526543Z"}}